QPF
0.00 0.00 0.00 0.00 0.00 0.00 0.00 0.01 0.01 0.01 0.01 0.01 0.01 0.01 0.01 0.01 0.01 0.02 0.01 0.01 0.02 0.02 0.04 0.06 0.10 0.10 0.09 0.07 0.07 0.07 0.06 0.05 0.05 0.05 0.06 0.06 0.07 0.05 0.04 0.05 0.06 0.07 0.07 0.05 0.04 0.05 0.06 0.06 0.06
0.00 0.00 0.00 0.00 0.00 0.00 0.00 0.00 0.00 0.01 0.01 0.01 0.01 0.01 0.01 0.01 0.01 0.01 0.01 0.01 0.02 0.02 0.03 0.04 0.07 0.09 0.08 0.07 0.07 0.06 0.05 0.04 0.03 0.04 0.05 0.07 0.07 0.06 0.06 0.06 0.05 0.06 0.06 0.07 0.07 0.05 0.06 0.07 0.06
0.00 0.00 0.00 0.00 0.00 0.00 0.00 0.00 0.00 0.00 0.01 0.01 0.00 0.01 0.01 0.01 0.01 0.01 0.01 0.01 0.01 0.02 0.03 0.05 0.05 0.04 0.04 0.04 0.05 0.05 0.05 0.04 0.03 0.03 0.05 0.07 0.08 0.07 0.06 0.06 0.07 0.06 0.05 0.07 0.08 0.07 0.07 0.08 0.07
0.00 0.00 0.00 0.00 0.00 0.00 0.00 0.00 0.00 0.00 0.00 0.00 0.00 0.01 0.00 0.01 0.01 0.00 0.00 0.01 0.01 0.02 0.03 0.04 0.04 0.03 0.02 0.02 0.03 0.04 0.04 0.04 0.04 0.04 0.05 0.06 0.07 0.07 0.07 0.07 0.06 0.05 0.05 0.07 0.10 0.08 0.08 0.10 0.09
0.00 0.00 0.00 0.00 0.00 0.01 0.01 0.00 0.00 0.00 0.00 0.00 0.00 0.00 0.01 0.02 0.01 0.00 0.00 0.01 0.01 0.01 0.03 0.05 0.05 0.03 0.02 0.02 0.03 0.03 0.03 0.03 0.04 0.04 0.04 0.05 0.06 0.07 0.07 0.07 0.05 0.05 0.06 0.06 0.09 0.07 0.08 0.12 0.11
0.00 0.00 0.00 0.00 0.00 0.01 0.01 0.01 0.00 0.00 0.00 0.00 0.01 0.00 0.02 0.02 0.02 0.01 0.00 0.01 0.01 0.01 0.01 0.02 0.04 0.04 0.03 0.03 0.03 0.03 0.03 0.03 0.03 0.03 0.04 0.05 0.07 0.07 0.08 0.07 0.05 0.04 0.06 0.05 0.05 0.06 0.07 0.07 0.10
0.00 0.00 0.00 0.00 0.00 0.01 0.02 0.01 0.00 0.01 0.01 0.00 0.00 0.01 0.02 0.02 0.02 0.01 0.01 0.01 0.01 0.01 0.01 0.01 0.03 0.03 0.04 0.05 0.04 0.03 0.03 0.03 0.03 0.04 0.04 0.04 0.05 0.06 0.07 0.07 0.07 0.04 0.06 0.08 0.08 0.08 0.08 0.07 0.08
0.00 0.00 0.00 0.00 0.00 0.01 0.02 0.01 0.01 0.01 0.01 0.00 0.00 0.01 0.01 0.01 0.01 0.01 0.01 0.01 0.01 0.01 0.02 0.02 0.02 0.03 0.04 0.04 0.04 0.04 0.03 0.03 0.03 0.03 0.04 0.04 0.06 0.06 0.06 0.07 0.08 0.05 0.06 0.08 0.06 0.07 0.07 0.07 0.05
0.00 0.00 0.00 0.00 0.00 0.00 0.00 0.00 0.00 0.00 0.00 0.00 0.00 0.00 0.01 0.00 0.01 0.00 0.01 0.01 0.01 0.01 0.01 0.01 0.01 0.02 0.03 0.04 0.03 0.04 0.04 0.03 0.03 0.04 0.03 0.05 0.08 0.06 0.06 0.06 0.04 0.04 0.07 0.09 0.05 0.06 0.06 0.06 0.06
0.00 0.00 0.00 0.00 0.00 0.00 0.00 0.00 0.00 0.00 0.00 0.00 0.00 0.01 0.01 0.01 0.00 0.00 0.00 0.01 0.01 0.01 0.01 0.01 0.01 0.02 0.03 0.02 0.03 0.05 0.04 0.04 0.04 0.06 0.05 0.05 0.06 0.06 0.03 0.04 0.04 0.06 0.08 0.10 0.07 0.06 0.05 0.04 0.05
0.00 0.00 0.00 0.00 0.00 0.00 0.00 0.00 0.00 0.00 0.01 0.01 0.00 0.01 0.01 0.00 0.00 0.01 0.01 0.02 0.01 0.01 0.01 0.01 0.02 0.03 0.03 0.03 0.03 0.04 0.04 0.04 0.03 0.03 0.04 0.05 0.03 0.02 0.02 0.03 0.05 0.07 0.07 0.09 0.07 0.05 0.02 0.03 0.05
0.00 0.00 0.00 0.00 0.00 0.00 0.00 0.00 0.00 0.00 0.01 0.01 0.01 0.00 0.00 0.00 0.01 0.01 0.02 0.02 0.02 0.02 0.02 0.03 0.03 0.03 0.03 0.03 0.03 0.03 0.03 0.02 0.02 0.03 0.03 0.03 0.03 0.02 0.03 0.03 0.05 0.06 0.07 0.09 0.08 0.06 0.03 0.03 0.04
0.00 0.00 0.00 0.00 0.00 0.00 0.00 0.00 0.00 0.00 0.00 0.01 0.00 0.00 0.00 0.00 0.01 0.01 0.03 0.03 0.02 0.02 0.04 0.06 0.04 0.05 0.03 0.04 0.04 0.03 0.03 0.02 0.02 0.02 0.02 0.02 0.03 0.02 0.03 0.03 0.04 0.04 0.04 0.07 0.07 0.05 0.03 0.03 0.03
0.00 0.00 0.00 0.00 0.00 0.00 0.00 0.00 0.00 0.00 0.00 0.00 0.00 0.00 0.00 0.00 0.01 0.01 0.01 0.01 0.02 0.02 0.04 0.05 0.06 0.09 0.04 0.05 0.06 0.04 0.04 0.04 0.04 0.04 0.03 0.02 0.03 0.03 0.02 0.03 0.05 0.05 0.05 0.05 0.04 0.04 0.05 0.04 0.04
0.00 0.00 0.00 0.00 0.00 0.00 0.00 0.00 0.00 0.00 0.00 0.00 0.00 0.00 0.00 0.01 0.01 0.02 0.02 0.02 0.03 0.03 0.02 0.04 0.04 0.05 0.05 0.05 0.04 0.05 0.05 0.04 0.04 0.04 0.05 0.03 0.03 0.05 0.04 0.04 0.05 0.05 0.05 0.05 0.05 0.04 0.05 0.05 0.05
0.00 0.00 0.00 0.00 0.00 0.00 0.00 0.00 0.00 0.00 0.00 0.00 0.00 0.00 0.01 0.01 0.02 0.02 0.02 0.03 0.03 0.03 0.03 0.03 0.03 0.03 0.05 0.05 0.03 0.04 0.04 0.05 0.05 0.05 0.06 0.04 0.03 0.04 0.06 0.07 0.05 0.05 0.05 0.04 0.06 0.05 0.05 0.07 0.07
0.00 0.00 0.00 0.00 0.00 0.00 0.00 0.00 0.00 0.00 0.00 0.00 0.00 0.00 0.01 0.01 0.01 0.02 0.01 0.02 0.02 0.02 0.03 0.05 0.07 0.05 0.05 0.06 0.05 0.06 0.07 0.06 0.05 0.06 0.06 0.06 0.05 0.05 0.06 0.07 0.08 0.06 0.07 0.06 0.04 0.04 0.05 0.06 0.07
0.00 0.00 0.00 0.00 0.00 0.00 0.00 0.00 0.00 0.00 0.00 0.00 0.00 0.00 0.01 0.01 0.03 0.03 0.01 0.01 0.01 0.01 0.01 0.04 0.06 0.05 0.05 0.06 0.05 0.07 0.09 0.07 0.06 0.07 0.07 0.07 0.05 0.05 0.08 0.07 0.07 0.07 0.08 0.10 0.10 0.10 0.11 0.09 0.07
0.00 0.00 0.00 0.00 0.00 0.00 0.00 0.00 0.00 0.00 0.00 0.00 0.00 0.00 0.01 0.01 0.02 0.02 0.01 0.01 0.01 0.01 0.00 0.01 0.02 0.03 0.04 0.07 0.07 0.09 0.09 0.09 0.08 0.07 0.07 0.08 0.06 0.08 0.09 0.07 0.10 0.10 0.11 0.11 0.11 0.11 0.11 0.09 0.07
0.00 0.00 0.00 0.00 0.00 0.00 0.00 0.00 0.00 0.00 0.00 0.00 0.00 0.00 0.00 0.00 0.00 0.00 0.00 0.00 0.01 0.01 0.01 0.00 0.01 0.02 0.03 0.04 0.06 0.08 0.09 0.08 0.08 0.07 0.08 0.08 0.07 0.09 0.08 0.12 0.11 0.12 0.14 0.13 0.11 0.12 0.10 0.09 0.08
0.00 0.00 0.00 0.00 0.00 0.00 0.00 0.00 0.00 0.00 0.00 0.00 0.00 0.00 0.00 0.00 0.00 0.00 0.00 0.00 0.00 0.00 0.00 0.00 0.01 0.03 0.04 0.03 0.06 0.09 0.10 0.09 0.11 0.13 0.13 0.09 0.07 0.06 0.08 0.10 0.10 0.12 0.12 0.14 0.16 0.14 0.14 0.13 0.10
0.00 0.00 0.00 0.00 0.00 0.00 0.00 0.00 0.00 0.00 0.00 0.00 0.00 0.00 0.00 0.00 0.00 0.00 0.00 0.00 0.00 0.00 0.00 0.00 0.01 0.02 0.03 0.04 0.04 0.06 0.09 0.11 0.15 0.18 0.20 0.12 0.08 0.06 0.06 0.10 0.10 0.10 0.08 0.12 0.12 0.10 0.14 0.16 0.12
0.00 0.00 0.00 0.00 0.00 0.00 0.00 0.00 0.00 0.00 0.00 0.00 0.00 0.00 0.00 0.00 0.00 0.00 0.00 0.01 0.01 0.00 0.00 0.00 0.01 0.02 0.03 0.04 0.04 0.05 0.06 0.09 0.12 0.14 0.14 0.12 0.09 0.07 0.05 0.07 0.09 0.09 0.08 0.09 0.12 0.13 0.13 0.12 0.12
0.00 0.00 0.00 0.00 0.00 0.00 0.00 0.00 0.00 0.00 0.00 0.00 0.00 0.00 0.00 0.00 0.00 0.00 0.00 0.01 0.02 0.00 0.00 0.01 0.01 0.02 0.02 0.03 0.03 0.05 0.06 0.07 0.06 0.08 0.09 0.08 0.07 0.07 0.06 0.07 0.08 0.08 0.08 0.09 0.12 0.13 0.12 0.13 0.12
0.00 0.00 0.00 0.00 0.00 0.00 0.00 0.00 0.00 0.00 0.00 0.00 0.00 0.00 0.00 0.00 0.00 0.00 0.00 0.01 0.03 0.01 0.00 0.00 0.01 0.01 0.02 0.03 0.03 0.04 0.06 0.06 0.05 0.05 0.07 0.07 0.06 0.05 0.07 0.08 0.09 0.08 0.09 0.08 0.11 0.11 0.10 0.10 0.11
0.00 0.00 0.00 0.00 0.00 0.00 0.00 0.00 0.00 0.00 0.00 0.00 0.00 0.00 0.00 0.00 0.00 0.00 0.00 0.02 0.03 0.01 0.00 0.00 0.00 0.00 0.01 0.02 0.04 0.05 0.05 0.03 0.03 0.03 0.04 0.05 0.06 0.05 0.06 0.09 0.09 0.10 0.09 0.08 0.11 0.11 0.09 0.09 0.10
0.00 0.00 0.00 0.00 0.00 0.00 0.00 0.00 0.00 0.00 0.00 0.00 0.00 0.00 0.00 0.00 0.00 0.00 0.00 0.03 0.01 0.00 0.00 0.00 0.00 0.00 0.00 0.01 0.03 0.03 0.04 0.03 0.02 0.03 0.03 0.03 0.06 0.07 0.06 0.06 0.06 0.07 0.08 0.10 0.12 0.11 0.09 0.11 0.10
0.00 0.00 0.00 0.00 0.00 0.00 0.00 0.00 0.00 0.00 0.00 0.00 0.00 0.00 0.00 0.00 0.00 0.00 0.00 0.00 0.00 0.00 0.00 0.00 0.00 0.00 0.00 0.01 0.01 0.01 0.03 0.03 0.02 0.02 0.02 0.02 0.03 0.04 0.04 0.04 0.04 0.05 0.07 0.09 0.11 0.11 0.11 0.13 0.11
0.00 0.00 0.00 0.00 0.00 0.00 0.00 0.00 0.00 0.00 0.00 0.00 0.00 0.00 0.00 0.00 0.00 0.00 0.00 0.00 0.00 0.00 0.00 0.00 0.00 0.00 0.00 0.00 0.00 0.01 0.01 0.01 0.01 0.01 0.02 0.03 0.03 0.03 0.03 0.03 0.05 0.07 0.07 0.07 0.08 0.09 0.10 0.10 0.09
0.00 0.00 0.00 0.00 0.00 0.00 0.00 0.00 0.00 0.00 0.00 0.00 0.00 0.00 0.00 0.00 0.00 0.00 0.00 0.00 0.00 0.00 0.00 0.00 0.00 0.00 0.00 0.00 0.00 0.00 0.00 0.01 0.01 0.01 0.02 0.02 0.03 0.03 0.03 0.03 0.04 0.05 0.06 0.06 0.07 0.07 0.08 0.08 0.07
MSLP
1004.91 1005.60 1006.56 1007.70 1008.89 1010.02 1011.01 1011.79 1012.35 1012.72 1012.93 1013.04 1013.11 1013.15 1013.19 1013.22 1013.23 1013.24 1013.26 1013.31 1013.42 1013.61 1013.90 1014.27 1014.69 1015.10 1015.45 1015.70 1015.81 1015.81 1015.72 1015.60 1015.52 1015.52 1015.62 1015.82 1016.07 1016.33 1016.53 1016.63 1016.64 1016.56 1016.44 1016.35 1016.34 1016.43 1016.64 1016.95 1017.30
1005.07 1005.96 1007.09 1008.35 1009.60 1010.72 1011.63 1012.27 1012.67 1012.85 1012.90 1012.89 1012.87 1012.87 1012.90 1012.95 1013.01 1013.06 1013.12 1013.20 1013.35 1013.58 1013.91 1014.33 1014.80 1015.26 1015.65 1015.93 1016.06 1016.07 1015.98 1015.86 1015.76 1015.74 1015.81 1015.97 1016.17 1016.36 1016.51 1016.57 1016.54 1016.46 1016.38 1016.34 1016.40 1016.58 1016.86 1017.21 1017.59
1005.46 1006.53 1007.81 1009.14 1010.39 1011.45 1012.22 1012.70 1012.92 1012.94 1012.86 1012.77 1012.71 1012.73 1012.81 1012.92 1013.04 1013.15 1013.24 1013.34 1013.48 1013.70 1014.02 1014.42 1014.89 1015.36 1015.77 1016.07 1016.24 1016.28 1016.22 1016.11 1016.02 1015.99 1016.03 1016.14 1016.28 1016.41 1016.49 1016.51 1016.47 1016.41 1016.38 1016.42 1016.56 1016.82 1017.16 1017.54 1017.91
1006.04 1007.26 1008.63 1009.99 1011.20 1012.14 1012.76 1013.06 1013.10 1012.99 1012.82 1012.69 1012.66 1012.73 1012.89 1013.09 1013.28 1013.44 1013.55 1013.63 1013.74 1013.90 1014.16 1014.52 1014.94 1015.39 1015.80 1016.13 1016.33 1016.41 1016.40 1016.33 1016.26 1016.23 1016.25 1016.31 1016.40 1016.47 1016.51 1016.51 1016.48 1016.46 1016.50 1016.62 1016.85 1017.17 1017.55 1017.94 1018.27
1006.73 1008.06 1009.47 1010.80 1011.91 1012.71 1013.17 1013.30 1013.21 1012.99 1012.78 1012.67 1012.69 1012.85 1013.10 1013.39 1013.65 1013.83 1013.94 1013.99 1014.04 1014.13 1014.31 1014.59 1014.96 1015.38 1015.78 1016.12 1016.35 1016.48 1016.51 1016.49 1016.45 1016.42 1016.43 1016.47 1016.52 1016.56 1016.59 1016.59 1016.60 1016.64 1016.76 1016.97 1017.27 1017.64 1018.03 1018.38 1018.64
1007.45 1008.82 1010.20 1011.45 1012.43 1013.08 1013.38 1013.39 1013.20 1012.94 1012.74 1012.67 1012.77 1013.03 1013.38 1013.74 1014.05 1014.24 1014.33 1014.33 1014.31 1014.33 1014.43 1014.65 1014.97 1015.35 1015.74 1016.08 1016.34 1016.49 1016.56 1016.57 1016.55 1016.54 1016.54 1016.57 1016.62 1016.66 1016.70 1016.74 1016.81 1016.94 1017.13 1017.42 1017.77 1018.15 1018.52 1018.82 1019.00
1008.08 1009.42 1010.71 1011.84 1012.67 1013.18 1013.35 1013.27 1013.05 1012.80 1012.66 1012.68 1012.88 1013.23 1013.66 1014.08 1014.40 1014.59 1014.65 1014.61 1014.53 1014.49 1014.54 1014.70 1014.99 1015.34 1015.71 1016.05 1016.31 1016.48 1016.56 1016.58 1016.57 1016.56 1016.57 1016.61 1016.67 1016.74 1016.83 1016.94 1017.08 1017.28 1017.55 1017.89 1018.27 1018.65 1018.97 1019.20 1019.30
1008.58 1009.81 1010.97 1011.93 1012.62 1013.00 1013.09 1012.98 1012.77 1012.60 1012.55 1012.68 1012.98 1013.42 1013.90 1014.35 1014.67 1014.85 1014.87 1014.79 1014.68 1014.61 1014.63 1014.78 1015.05 1015.38 1015.74 1016.06 1016.30 1016.45 1016.52 1016.52 1016.51 1016.51 1016.53 1016.59 1016.69 1016.81 1016.96 1017.14 1017.36 1017.63 1017.95 1018.32 1018.70 1019.05 1019.32 1019.47 1019.50
1008.93 1010.01 1010.99 1011.78 1012.32 1012.59 1012.64 1012.55 1012.42 1012.35 1012.42 1012.67 1013.07 1013.58 1014.09 1014.54 1014.84 1014.98 1014.98 1014.88 1014.77 1014.70 1014.74 1014.89 1015.16 1015.50 1015.83 1016.12 1016.32 1016.43 1016.46 1016.44 1016.41 1016.41 1016.45 1016.54 1016.68 1016.86 1017.07 1017.32 1017.60 1017.92 1018.28 1018.65 1019.01 1019.32 1019.53 1019.62 1019.59
1009.16 1010.05 1010.85 1011.47 1011.88 1012.08 1012.12 1012.08 1012.05 1012.11 1012.31 1012.67 1013.15 1013.69 1014.21 1014.63 1014.91 1015.01 1014.99 1014.89 1014.80 1014.76 1014.84 1015.03 1015.32 1015.65 1015.97 1016.22 1016.38 1016.44 1016.42 1016.36 1016.31 1016.30 1016.36 1016.49 1016.68 1016.92 1017.19 1017.49 1017.81 1018.15 1018.50 1018.85 1019.18 1019.44 1019.61 1019.66 1019.60
1009.34 1010.05 1010.66 1011.13 1011.43 1011.58 1011.64 1011.67 1011.74 1011.92 1012.23 1012.67 1013.20 1013.76 1014.25 1014.64 1014.87 1014.94 1014.91 1014.83 1014.78 1014.80 1014.93 1015.17 1015.49 1015.83 1016.13 1016.34 1016.45 1016.45 1016.39 1016.30 1016.24 1016.24 1016.32 1016.49 1016.73 1017.01 1017.33 1017.65 1017.98 1018.32 1018.64 1018.96 1019.23 1019.45 1019.58 1019.61 1019.56
1009.55 1010.10 1010.55 1010.88 1011.10 1011.21 1011.29 1011.38 1011.53 1011.80 1012.18 1012.67 1013.21 1013.75 1014.20 1014.54 1014.73 1014.78 1014.76 1014.72 1014.71 1014.80 1014.99 1015.29 1015.63 1015.98 1016.26 1016.44 1016.51 1016.48 1016.38 1016.28 1016.22 1016.24 1016.35 1016.56 1016.84 1017.15 1017.49 1017.82 1018.14 1018.44 1018.73 1018.99 1019.22 1019.40 1019.51 1019.55 1019.51
1009.84 1010.27 1010.60 1010.83 1010.97 1011.06 1011.13 1011.25 1011.44 1011.75 1012.15 1012.64 1013.15 1013.63 1014.04 1014.33 1014.49 1014.54 1014.54 1014.55 1014.61 1014.76 1015.01 1015.35 1015.72 1016.06 1016.33 1016.49 1016.54 1016.49 1016.39 1016.29 1016.26 1016.31 1016.46 1016.70 1017.01 1017.34 1017.68 1017.99 1018.28 1018.54 1018.77 1018.99 1019.18 1019.34 1019.45 1019.50 1019.49
1010.25 1010.60 1010.84 1010.99 1011.07 1011.12 1011.17 1011.27 1011.45 1011.73 1012.09 1012.52 1012.97 1013.39 1013.74 1014.00 1014.15 1014.23 1014.28 1014.35 1014.47 1014.69 1014.99 1015.35 1015.73 1016.07 1016.33 1016.48 1016.52 1016.48 1016.40 1016.34 1016.33 1016.43 1016.61 1016.88 1017.21 1017.54 1017.87 1018.16 1018.41 1018.62 1018.81 1018.99 1019.16 1019.31 1019.43 1019.51 1019.54
1010.76 1011.05 1011.23 1011.33 1011.35 1011.35 1011.35 1011.38 1011.49 1011.68 1011.95 1012.28 1012.65 1013.00 1013.31 1013.56 1013.74 1013.88 1014.00 1014.14 1014.34 1014.60 1014.93 1015.31 1015.68 1016.01 1016.26 1016.41 1016.46 1016.45 1016.41 1016.39 1016.43 1016.57 1016.78 1017.07 1017.39 1017.72 1018.02 1018.28 1018.49 1018.67 1018.83 1018.99 1019.15 1019.31 1019.45 1019.56 1019.63
1011.30 1011.56 1011.71 1011.76 1011.74 1011.67 1011.58 1011.52 1011.50 1011.56 1011.70 1011.91 1012.18 1012.48 1012.77 1013.05 1013.29 1013.51 1013.72 1013.95 1014.22 1014.53 1014.88 1015.24 1015.60 1015.91 1016.15 1016.30 1016.38 1016.41 1016.42 1016.45 1016.54 1016.70 1016.93 1017.21 1017.52 1017.82 1018.09 1018.32 1018.51 1018.67 1018.83 1018.98 1019.16 1019.33 1019.51 1019.65 1019.74
1011.80 1012.04 1012.17 1012.19 1012.13 1011.99 1011.81 1011.62 1011.46 1011.36 1011.35 1011.43 1011.61 1011.86 1012.16 1012.49 1012.83 1013.16 1013.49 1013.82 1014.15 1014.49 1014.84 1015.19 1015.52 1015.80 1016.04 1016.20 1016.31 1016.39 1016.45 1016.52 1016.64 1016.81 1017.04 1017.29 1017.56 1017.83 1018.07 1018.27 1018.45 1018.61 1018.78 1018.96 1019.15 1019.36 1019.56 1019.72 1019.84
1012.20 1012.42 1012.55 1012.56 1012.46 1012.27 1012.00 1011.69 1011.37 1011.11 1010.93 1010.89 1010.98 1011.20 1011.54 1011.95 1012.41 1012.87 1013.32 1013.74 1014.13 1014.50 1014.84 1015.16 1015.46 1015.72 1015.94 1016.13 1016.27 1016.39 1016.50 1016.61 1016.75 1016.91 1017.10 1017.31 1017.53 1017.75 1017.95 1018.14 1018.32 1018.50 1018.69 1018.89 1019.12 1019.35 1019.57 1019.75 1019.88
1012.44 1012.67 1012.80 1012.83 1012.73 1012.51 1012.16 1011.73 1011.27 1010.85 1010.53 1010.36 1010.38 1010.59 1010.97 1011.47 1012.05 1012.64 1013.21 1013.72 1014.17 1014.55 1014.88 1015.17 1015.42 1015.66 1015.89 1016.09 1016.28 1016.45 1016.60 1016.73 1016.87 1017.00 1017.14 1017.29 1017.44 1017.61 1017.77 1017.95 1018.14 1018.34 1018.56 1018.80 1019.05 1019.29 1019.52 1019.71 1019.83
1012.54 1012.78 1012.95 1013.03 1012.96 1012.73 1012.34 1011.82 1011.24 1010.67 1010.22 1009.94 1009.89 1010.09 1010.50 1011.08 1011.77 1012.48 1013.16 1013.75 1014.24 1014.62 1014.93 1015.18 1015.41 1015.63 1015.86 1016.09 1016.32 1016.54 1016.72 1016.88 1017.00 1017.09 1017.17 1017.25 1017.34 1017.45 1017.58 1017.75 1017.95 1018.18 1018.42 1018.68 1018.94 1019.19 1019.40 1019.58 1019.69
1012.52 1012.80 1013.05 1013.21 1013.20 1013.00 1012.60 1012.03 1011.34 1010.66 1010.07 1009.69 1009.57 1009.73 1010.16 1010.81 1011.58 1012.38 1013.13 1013.77 1014.29 1014.67 1014.95 1015.17 1015.37 1015.59 1015.83 1016.10 1016.37 1016.64 1016.86 1017.03 1017.14 1017.19 1017.21 1017.22 1017.25 1017.31 1017.41 1017.58 1017.78 1018.03 1018.29 1018.55 1018.80 1019.03 1019.21 1019.36 1019.46
1012.45 1012.81 1013.17 1013.43 1013.53 1013.39 1013.00 1012.39 1011.63 1010.84 1010.14 1009.64 1009.43 1009.55 1009.97 1010.63 1011.44 1012.30 1013.09 1013.77 1014.29 1014.66 1014.92 1015.11 1015.29 1015.50 1015.76 1016.07 1016.39 1016.70 1016.96 1017.15 1017.24 1017.27 1017.24 1017.19 1017.16 1017.18 1017.27 1017.43 1017.64 1017.89 1018.16 1018.41 1018.63 1018.82 1018.96 1019.06 1019.14
1012.39 1012.86 1013.35 1013.75 1013.96 1013.90 1013.54 1012.91 1012.09 1011.20 1010.38 1009.77 1009.46 1009.51 1009.88 1010.53 1011.35 1012.22 1013.03 1013.71 1014.22 1014.58 1014.81 1014.98 1015.14 1015.35 1015.63 1015.97 1016.33 1016.68 1016.97 1017.17 1017.27 1017.27 1017.20 1017.12 1017.05 1017.05 1017.12 1017.27 1017.49 1017.75 1018.01 1018.24 1018.42 1018.55 1018.63 1018.69 1018.74
1012.40 1013.00 1013.63 1014.16 1014.48 1014.50 1014.17 1013.53 1012.65 1011.67 1010.74 1010.02 1009.61 1009.56 1009.87 1010.47 1011.26 1012.11 1012.92 1013.59 1014.09 1014.42 1014.62 1014.77 1014.92 1015.12 1015.41 1015.76 1016.15 1016.53 1016.85 1017.06 1017.15 1017.14 1017.05 1016.95 1016.86 1016.84 1016.91 1017.07 1017.29 1017.55 1017.79 1017.99 1018.13 1018.21 1018.24 1018.25 1018.28
1012.48 1013.20 1013.95 1014.60 1015.01 1015.09 1014.79 1014.13 1013.21 1012.15 1011.13 1010.31 1009.79 1009.65 1009.89 1010.43 1011.17 1011.99 1012.77 1013.41 1013.89 1014.19 1014.38 1014.50 1014.63 1014.82 1015.10 1015.45 1015.85 1016.23 1016.56 1016.77 1016.86 1016.84 1016.75 1016.63 1016.54 1016.52 1016.59 1016.75 1016.98 1017.23 1017.47 1017.64 1017.75 1017.78 1017.77 1017.75 1017.76
1012.61 1013.42 1014.26 1014.98 1015.44 1015.55 1015.26 1014.59 1013.63 1012.52 1011.44 1010.54 1009.95 1009.73 1009.89 1010.37 1011.06 1011.84 1012.58 1013.20 1013.65 1013.93 1014.09 1014.18 1014.29 1014.46 1014.71 1015.05 1015.43 1015.80 1016.11 1016.32 1016.40 1016.37 1016.27 1016.15 1016.06 1016.05 1016.13 1016.30 1016.53 1016.79 1017.01 1017.18 1017.26 1017.27 1017.23 1017.19 1017.20
1012.73 1013.59 1014.45 1015.19 1015.66 1015.76 1015.46 1014.78 1013.81 1012.69 1011.58 1010.65 1010.02 1009.76 1009.87 1010.29 1010.93 1011.67 1012.37 1012.96 1013.38 1013.64 1013.78 1013.85 1013.92 1014.06 1014.28 1014.58 1014.92 1015.27 1015.55 1015.74 1015.81 1015.78 1015.67 1015.55 1015.47 1015.46 1015.54 1015.72 1015.96 1016.22 1016.44 1016.61 1016.69 1016.69 1016.65 1016.62 1016.63
1012.77 1013.61 1014.44 1015.13 1015.56 1015.63 1015.32 1014.64 1013.69 1012.59 1011.52 1010.61 1009.98 1009.71 1009.80 1010.19 1010.79 1011.48 1012.14 1012.69 1013.08 1013.32 1013.43 1013.49 1013.54 1013.64 1013.83 1014.09 1014.39 1014.70 1014.96 1015.12 1015.18 1015.14 1015.04 1014.92 1014.84 1014.83 1014.91 1015.08 1015.32 1015.58 1015.81 1015.98 1016.07 1016.09 1016.07 1016.05 1016.08
1012.70 1013.45 1014.18 1014.76 1015.11 1015.13 1014.80 1014.15 1013.26 1012.24 1011.25 1010.42 1009.85 1009.61 1009.70 1010.06 1010.62 1011.26 1011.87 1012.38 1012.74 1012.95 1013.05 1013.09 1013.12 1013.21 1013.38 1013.61 1013.89 1014.18 1014.42 1014.57 1014.63 1014.59 1014.49 1014.38 1014.29 1014.27 1014.34 1014.50 1014.72 1014.96 1015.19 1015.36 1015.47 1015.52 1015.53 1015.54 1015.60
1012.49 1013.09 1013.67 1014.11 1014.35 1014.31 1013.98 1013.39 1012.59 1011.70 1010.84 1010.13 1009.66 1009.48 1009.58 1009.93 1010.43 1011.01 1011.55 1012.00 1012.32 1012.50 1012.59 1012.62 1012.67 1012.76 1012.94 1013.18 1013.47 1013.76 1014.01 1014.18 1014.25 1014.24 1014.15 1014.04 1013.95 1013.91 1013.95 1014.07 1014.25 1014.47 1014.67 1014.85 1014.97 1015.04 1015.09 1015.14 1015.23
Thickness
5845 5848 5849 5844 5833 5814 5794 5797 5804 5800 5798 5803 5803 5798 5790 5783 5778 5765 5783 5789 5786 5782 5775 5768 5766 5765 5765 5765 5764 5763 5762 5762 5761 5761 5760 5760 5759 5759 5758 5758 5757 5757 5757 5757 5756 5756 5755 5754 5753
5855 5853 5848 5845 5825 5797 5789 5801 5799 5799 5802 5805 5802 5797 5790 5781 5784 5782 5785 5786 5785 5782 5777 5771 5765 5764 5763 5763 5762 5761 5761 5760 5759 5759 5758 5758 5757 5757 5756 5756 5756 5756 5755 5755 5755 5754 5753 5752 5751
5858 5856 5848 5841 5816 5799 5792 5804 5802 5805 5809 5805 5798 5797 5788 5779 5782 5784 5787 5787 5785 5781 5776 5768 5764 5763 5762 5761 5760 5759 5759 5758 5757 5757 5756 5756 5756 5755 5755 5755 5755 5754 5754 5753 5753 5752 5751 5750 5749
5860 5855 5852 5833 5808 5809 5809 5810 5811 5806 5806 5806 5801 5789 5787 5788 5789 5790 5789 5788 5785 5780 5777 5768 5763 5761 5760 5759 5758 5757 5757 5756 5755 5755 5755 5754 5754 5754 5753 5753 5753 5752 5752 5751 5751 5750 5749 5748 5747
5864 5856 5839 5821 5812 5815 5819 5818 5816 5808 5803 5803 5801 5786 5779 5787 5794 5792 5789 5788 5785 5782 5777 5769 5762 5760 5759 5757 5757 5756 5755 5754 5754 5753 5753 5753 5752 5752 5751 5751 5751 5751 5750 5749 5749 5748 5748 5747 5746
5861 5857 5831 5813 5811 5817 5822 5823 5818 5809 5804 5803 5798 5787 5779 5787 5789 5789 5789 5787 5786 5782 5777 5768 5761 5759 5758 5756 5755 5754 5753 5753 5752 5752 5752 5751 5751 5751 5750 5750 5750 5749 5748 5748 5747 5746 5746 5745 5744
5855 5847 5828 5822 5815 5815 5820 5828 5819 5811 5804 5803 5804 5788 5781 5785 5788 5789 5788 5786 5784 5781 5777 5771 5766 5760 5757 5755 5754 5753 5752 5752 5751 5751 5750 5750 5750 5749 5749 5749 5748 5748 5747 5746 5745 5745 5744 5743 5743
5866 5854 5834 5828 5820 5816 5827 5828 5825 5817 5807 5812 5809 5791 5782 5785 5789 5788 5785 5782 5780 5778 5775 5770 5768 5764 5761 5757 5753 5752 5751 5750 5750 5749 5749 5749 5749 5749 5748 5748 5747 5746 5746 5745 5744 5744 5743 5742 5741
5868 5849 5828 5827 5822 5823 5832 5825 5824 5827 5816 5810 5809 5806 5801 5794 5789 5783 5779 5777 5774 5772 5772 5771 5768 5764 5762 5760 5754 5752 5750 5750 5749 5749 5749 5750 5751 5751 5749 5748 5746 5745 5745 5744 5744 5743 5742 5742 5741
5862 5840 5830 5839 5840 5835 5833 5829 5825 5820 5810 5805 5802 5802 5800 5792 5787 5781 5778 5774 5772 5770 5770 5769 5767 5764 5763 5760 5756 5754 5753 5751 5752 5752 5751 5751 5750 5750 5750 5746 5745 5745 5744 5743 5743 5742 5742 5743 5744
5857 5842 5844 5847 5849 5845 5836 5832 5834 5821 5809 5809 5803 5797 5795 5791 5787 5783 5780 5778 5776 5772 5769 5768 5765 5762 5762 5759 5757 5755 5754 5752 5752 5751 5751 5750 5751 5751 5751 5749 5747 5745 5745 5745 5743 5744 5746 5747 5746
5853 5850 5850 5850 5852 5846 5840 5837 5831 5825 5821 5825 5818 5808 5799 5792 5788 5785 5782 5780 5777 5773 5769 5768 5764 5761 5759 5758 5757 5755 5755 5754 5754 5751 5750 5751 5751 5751 5751 5749 5749 5748 5747 5745 5746 5746 5746 5746 5746
5849 5848 5853 5856 5854 5850 5843 5837 5832 5827 5830 5828 5820 5809 5802 5796 5792 5790 5787 5782 5778 5773 5770 5768 5764 5760 5757 5755 5755 5756 5754 5755 5754 5751 5750 5750 5751 5751 5751 5749 5749 5750 5749 5747 5746 5747 5746 5746 5746
5851 5852 5853 5854 5852 5849 5840 5836 5832 5828 5831 5824 5816 5809 5805 5800 5795 5791 5786 5782 5779 5775 5771 5769 5764 5760 5757 5755 5754 5754 5754 5752 5754 5752 5751 5750 5751 5751 5750 5749 5748 5749 5749 5749 5748 5747 5747 5747 5747
5857 5849 5848 5850 5850 5849 5843 5828 5829 5833 5831 5821 5816 5811 5807 5803 5799 5793 5790 5786 5783 5779 5775 5770 5766 5762 5758 5756 5755 5754 5754 5754 5753 5752 5750 5749 5750 5749 5749 5750 5749 5750 5749 5747 5747 5747 5748 5748 5748
5853 5844 5835 5844 5848 5848 5838 5821 5832 5837 5829 5820 5817 5812 5807 5803 5801 5798 5795 5791 5787 5783 5777 5773 5771 5765 5760 5757 5755 5756 5756 5754 5753 5752 5751 5750 5749 5748 5748 5750 5751 5750 5750 5749 5748 5748 5748 5748 5749
5841 5833 5832 5837 5848 5847 5839 5828 5834 5838 5831 5822 5819 5815 5810 5805 5803 5802 5799 5795 5791 5786 5780 5775 5772 5767 5763 5759 5757 5756 5755 5753 5753 5752 5752 5750 5750 5749 5749 5749 5749 5748 5749 5749 5750 5751 5749 5747 5747
5829 5832 5831 5832 5844 5843 5836 5834 5837 5838 5834 5827 5823 5819 5813 5808 5806 5806 5803 5799 5794 5789 5784 5778 5773 5769 5765 5762 5758 5757 5756 5755 5754 5753 5751 5750 5750 5749 5749 5749 5749 5750 5750 5749 5749 5747 5746 5746 5746
5837 5833 5831 5835 5846 5841 5835 5834 5837 5839 5835 5830 5825 5822 5817 5814 5815 5811 5806 5802 5797 5791 5786 5781 5776 5772 5767 5764 5761 5757 5755 5756 5755 5754 5752 5751 5750 5750 5748 5751 5749 5748 5749 5748 5749 5747 5746 5745 5746
5833 5829 5830 5835 5842 5838 5836 5835 5841 5841 5837 5836 5831 5826 5823 5820 5817 5812 5808 5804 5800 5794 5789 5784 5779 5776 5771 5768 5764 5761 5758 5758 5757 5755 5753 5751 5750 5750 5750 5749 5749 5749 5748 5747 5748 5746 5746 5746 5747
5830 5830 5831 5829 5835 5839 5834 5830 5835 5841 5842 5840 5839 5836 5832 5826 5820 5815 5810 5807 5803 5798 5794 5790 5785 5780 5775 5772 5767 5764 5760 5757 5756 5754 5753 5752 5751 5751 5750 5750 5750 5750 5749 5748 5746 5747 5745 5744 5746
5822 5837 5834 5830 5826 5828 5828 5818 5833 5839 5837 5838 5838 5838 5836 5833 5827 5821 5815 5811 5807 5804 5800 5794 5788 5782 5778 5773 5770 5765 5760 5756 5756 5755 5754 5753 5751 5751 5751 5750 5749 5749 5750 5748 5748 5749 5747 5744 5743
5831 5837 5833 5830 5826 5822 5827 5819 5832 5840 5833 5839 5843 5843 5842 5839 5834 5826 5821 5817 5814 5810 5804 5797 5791 5784 5780 5776 5771 5766 5763 5761 5759 5757 5754 5753 5753 5752 5752 5750 5749 5749 5749 5749 5748 5748 5747 5746 5744
5832 5829 5825 5827 5825 5803 5817 5813 5820 5840 5840 5844 5848 5847 5844 5842 5838 5832 5827 5821 5817 5813 5807 5800 5792 5785 5781 5777 5774 5769 5765 5762 5759 5756 5754 5753 5754 5753 5753 5751 5750 5749 5749 5749 5748 5747 5747 5746 5745
5826 5814 5800 5796 5799 5804 5819 5811 5824 5844 5851 5850 5849 5849 5847 5844 5840 5833 5827 5822 5817 5813 5809 5803 5796 5788 5784 5780 5775 5772 5768 5764 5760 5758 5757 5754 5754 5754 5752 5752 5749 5749 5748 5748 5748 5746 5746 5745 5744
5821 5821 5797 5787 5794 5808 5809 5809 5833 5851 5854 5855 5855 5854 5850 5846 5843 5837 5831 5826 5820 5816 5811 5805 5798 5791 5787 5782 5777 5773 5770 5767 5765 5761 5760 5757 5756 5755 5753 5751 5749 5748 5748 5748 5747 5747 5746 5745 5743
5815 5818 5832 5813 5803 5798 5810 5820 5837 5850 5849 5851 5852 5850 5847 5846 5843 5839 5834 5829 5823 5818 5813 5808 5800 5794 5789 5784 5779 5774 5771 5768 5766 5762 5760 5759 5756 5754 5752 5751 5750 5749 5748 5747 5746 5746 5744 5744 5743
5827 5826 5814 5804 5783 5781 5797 5806 5821 5832 5839 5845 5846 5846 5846 5845 5843 5840 5837 5831 5826 5821 5815 5810 5803 5796 5791 5786 5781 5777 5772 5768 5765 5762 5759 5757 5755 5753 5751 5750 5749 5748 5748 5747 5745 5745 5744 5742 5741
5806 5808 5810 5808 5806 5788 5787 5807 5841 5838 5842 5843 5845 5847 5846 5845 5843 5840 5836 5833 5828 5823 5817 5810 5804 5797 5792 5787 5782 5778 5774 5770 5766 5762 5759 5757 5755 5752 5750 5749 5748 5747 5747 5746 5744 5743 5743 5741 5740
5817 5814 5808 5792 5788 5795 5797 5812 5847 5846 5848 5846 5846 5846 5846 5846 5845 5841 5836 5831 5827 5822 5817 5810 5805 5799 5794 5789 5783 5778 5774 5770 5767 5764 5760 5758 5755 5752 5751 5749 5747 5746 5746 5744 5742 5741 5741 5740 5739